Regional Weather Roundup
Issued by NWS

Home | Current Version | Previous Version | Text Only | Print | Product List | Glossary Off
Versions: 1 2 3 4 5 6 7 8 9 10 11 12 13 14 15 16 17 18 19 20 21 22 23 24 25 26 27 28 29 30 31 32 33 34 35 36 37 38 39 40 41 42 43 44 45 46 47 48 49 50

000
ASUS45 KCYS 282310
RWRWY

WYOMING REGIONAL WEATHER ROUNDUP
NATIONAL WEATHER SERVICE CHEYENNE WY
500 PM MDT THU MAY 28 2015

NOTE:  "FAIR" INDICATES FEW OR NO CLOUDS BELOW 12,000 FEET
WITH NO SIGNIFICANT WEATHER AND/OR OBSTRUCTIONS TO VISIBILITY.

WYZ001-290000-
YELLOWSTONE NATIONAL PARK

CITY           SKY/WX    TMP DP  RH WIND       PRES   REMARKS
LK YELLOWSTONE   N/A     41  37  86 CALM      30.25R
W YELLOWSTONE  NOT AVBL

$$
WYZ002>013-054>058-071-098>099-290000-
NORTHERN WYOMING

CITY           SKY/WX    TMP DP  RH WIND       PRES   REMARKS
JACKSON        LGT RAIN  48  43  81 VRB5      30.16R
CODY           FAIR      57  45  62 N14       30.09R
GREYBULL       FAIR      67  40  37 N26G32    30.01F
WORLAND        FAIR      65  45  48 N9        30.03S
SHERIDAN       CLOUDY    59  49  69 N17G26    30.07R
BUFFALO        CLOUDY    60  45  57 N18G26    30.07S
GILLETTE       FAIR      62  47  57 N15       30.02S
HULETT         RAIN      55  52  88 SE6       30.03S
NEWCASTLE      FAIR      61  48  63 NW18G25   30.01R

$$
WYZ014>020-022>026-101>103-290000-
CENTRAL WYOMING

CITY           SKY/WX    TMP DP  RH WIND       PRES   REMARKS
BIG PINEY      FAIR      55  34  45 VRB6      30.16F
PINEDALE       FAIR      54  36  50 SW13G18   30.16F
DUBOIS         FAIR      54  34  47 MISG      30.12S
LANDER         LGT RAIN  55  42  61 NW17      30.05R
RIVERTON       FAIR      59  42  53 NE9       30.05S
CASPER         CLOUDY    61  46  57 NE12      30.04R
DOUGLAS        FAIR      65  46  50 N18G28    29.99S

$$
WYZ021-027>030-104>119-290000-
SOUTHERN WYOMING

CITY           SKY/WX    TMP DP  RH WIND       PRES   REMARKS
EVANSTON       LGT RAIN  43  38  82 W9        30.23R
KEMMERER       FAIR      48  37  66 W15       30.22S
FORT BRIDGER   MOCLDY    48  43  81 W12       30.25F
ROCK SPRINGS   FAIR      52  40  63 SW14      30.17F
DIXON          CLOUDY    55  40  57 W5        30.20R
RAWLINS        LGT RAIN  49  42  77 S9        30.16R
SARATOGA       MOCLDY    52  41  66 W12       30.18F
LARAMIE        FAIR      54  36  50 W28G36    30.10R
CHEYENNE       PTSUNNY   69  36  29 NW18G25   30.01F
TORRINGTON     FAIR      75  43  31 N8        29.91F
PINE BLUFFS    FAIR      70  43  37 N10       29.98R

$$


USA.gov is the U.S. government's official web portal to all federal, state and local government web resources and services.